COSMOS 2454

导读

COSMOS 2454是独联体(CIS)发射的一颗军用卫星,属于苏联/俄罗斯"宇宙"(COSMOS)卫星系列。它于2009年7月21日发射入轨,该系列卫星多承担军事侦察、电子情报收集等任务,部分卫星承担技术试验与空间监视功能,延续了苏联对军用卫星统一命名的传统,具体任务细节常不对外公开,是独联体空间军事观测体系的组成部分。

基本信息
目录编号:
35635
目录名称:
COSMOS 2454
国际标识:
2009-039A
轨道中心:
EARTH
卫星名称:
COSMOS 2454
卫星全名:
--
卫星状态:
在轨 (已飞行6261 天)
发射日期:
2009-07-21 UTC
国别 :
俄罗斯(独联体) (CIS)
星等 :
--
该卫星已列入 空间交会检测服务 Space Conjunction Data Service (SCDS) ,当前飞行风险评估等级: 无高风险
轨道信息
数据来源 国际轨道数据
星历时间: 2026-09-11T01:24:27+0800
13小时前
查看轨道信息
半长轴: 7306.913km
偏心率: 0.0019536
轨道倾角: 82.959°
近地点辐角 18.537°
升交点赤经 322.424°
平近点角 98.068°
近地点: 914.501km
远地点: 943.051km
周期: 103.600分钟
每日圈数: 13.899586
详细信息
使用方式:
暂无
2D轨道图
3D轨道图
轨道高度分析图
轨道倾角分析图
轨道综合分析图
查看轨道综合分析图
与全量物体交会距离演化趋势
与全量物体交会风险概率演化趋势